Location: Bacharowice
(49.9333°N, 19.5833°E)
Time: 01:26:21
(UTC+00:00)

USA 305 - Pass Details

Date: 24 September 2021
Orbit: 547 x 588 km, 54.0° (Epoch: 03 October)

Event Time Altitude Azimuth Distance (km) Brightness Sun altitude
Rises 20:29:22 0° 294° (WNW) 2,763 7.2 -34.2°
Reaches altitude 10° 20:31:44 10° 285° (WNW) 1,871 6.1 -34.4°
Enters shadow 20:32:06 12° 283° (WNW) 1,742 5.9 -34.5°
